Probability
0 0 0 0 0 0 0 0 0 0 0 0 0 0 0 0 0 0 0 0 0 0 6 3 0 6 0 0 0 0 0 0 0 0 0 0 0 0 0 0 0 0 0
0 0 0 0 0 0 0 0 0 0 0 0 0 0 0 0 0 0 0 0 0 0 3 3 6 3 0 0 0 0 0 0 3 0 0 0 0 0 0 0 0 0 0
0 0 0 0 0 0 0 0 0 0 0 0 0 0 0 0 0 0 0 0 0 0 0 3 3 3 0 0 0 0 0 0 3 0 0 0 0 0 0 0 0 0 0
0 0 0 0 0 0 0 0 0 0 0 0 0 0 0 0 0 0 0 0 0 0 0 0 0 3 0 0 0 0 0 0 0 0 0 0 0 0 0 0 0 0 0
0 0 0 0 0 0 0 0 0 0 0 0 0 0 0 0 0 0 0 0 0 0 0 0 0 0 0 0 0 0 0 0 0 0 0 0 0 0 0 0 0 0 0
0 0 0 0 0 0 0 0 0 0 0 0 0 0 0 0 0 0 0 0 0 0 0 0 0 0 0 0 0 0 0 0 0 0 0 0 0 0 0 0 0 0 0
0 0 0 0 0 0 0 0 0 0 0 0 0 0 0 0 0 0 0 0 0 0 0 0 0 0 0 0 0 0 0 0 0 0 0 0 0 0 0 0 0 0 0
0 0 0 0 0 0 0 0 0 0 0 0 0 0 0 0 0 0 0 0 0 0 0 0 0 0 0 0 0 0 0 0 0 0 0 0 0 0 0 0 0 0 0
0 0 0 0 0 0 0 0 0 0 0 0 0 0 0 0 0 0 0 0 0 0 0 0 0 0 0 0 0 0 0 0 0 0 0 0 0 0 0 0 0 0 0
0 0 0 0 0 0 0 0 0 0 0 0 0 0 0 0 0 0 0 0 0 0 0 0 0 0 0 0 0 0 0 0 0 0 0 0 0 0 0 0 0 0 0
0 0 0 0 0 0 0 0 0 0 0 0 0 0 0 0 0 0 0 0 0 0 0 0 0 0 0 0 0 0 0 0 0 0 0 0 0 0 0 0 0 0 0
0 0 0 0 0 0 0 0 0 0 0 0 0 0 0 0 0 0 0 0 0 0 0 0 0 0 0 0 0 0 0 0 0 0 0 0 0 0 0 0 0 0 0
0 0 0 0 0 0 0 0 0 0 0 0 0 0 0 0 0 0 0 0 0 0 0 0 0 0 0 0 0 0 0 0 0 0 0 0 0 0 0 0 0 0 0
0 0 0 0 0 0 0 0 0 0 0 0 0 0 0 0 0 0 0 0 0 0 0 0 0 0 0 0 0 0 0 0 0 0 0 0 0 0 0 0 0 0 0
0 0 0 0 0 0 0 0 0 0 0 0 0 0 0 0 0 0 0 0 0 0 0 0 0 0 0 0 0 0 0 0 0 0 0 0 0 0 0 0 0 0 0
0 0 0 0 0 0 0 0 0 0 0 0 0 0 0 0 0 0 0 0 0 0 0 0 0 0 0 0 0 0 0 0 0 0 0 0 0 0 0 0 0 0 0
0 0 0 0 0 0 0 0 0 0 0 0 0 0 0 0 0 0 0 0 0 0 0 0 0 0 0 0 0 0 0 0 0 0 0 0 0 0 0 0 0 0 0
0 0 0 0 0 0 0 0 0 0 0 0 0 0 0 0 0 0 0 0 0 0 0 0 0 0 0 0 0 0 0 0 0 0 0 0 0 0 0 0 0 0 0
0 0 0 0 0 0 0 0 0 0 0 0 0 0 0 0 0 0 0 0 0 0 0 0 0 0 0 0 0 0 0 0 0 0 0 0 0 0 0 0 0 0 0
0 0 0 0 0 0 0 0 0 0 0 0 0 0 0 0 0 0 0 0 0 0 0 0 0 0 0 0 0 0 0 0 0 0 0 0 0 0 0 0 0 0 0
0 0 0 0 0 0 0 0 0 0 0 0 0 0 0 0 0 0 0 0 0 0 0 0 0 0 0 0 0 0 0 0 0 0 0 0 0 0 0 0 0 0 0
0 0 0 0 0 0 0 0 0 0 0 0 0 0 0 0 0 0 0 0 0 0 0 0 0 0 0 0 0 0 0 0 0 0 0 0 0 0 0 0 0 0 0
0 0 0 0 0 0 0 0 0 0 0 0 0 0 0 0 0 0 0 0 0 0 0 0 0 0 0 0 0 0 0 0 0 0 0 0 0 0 0 0 0 0 0
0 0 0 0 0 0 0 0 0 0 0 0 0 0 0 0 0 0 0 0 0 0 0 0 0 0 0 0 0 0 0 0 0 0 0 0 0 0 0 0 0 0 0
0 0 0 0 0 0 0 0 0 0 0 0 0 0 0 0 0 0 0 0 0 0 0 0 0 0 0 0 0 0 0 0 0 0 0 0 0 0 0 0 0 0 0
0 0 0 0 0 0 0 0 0 0 0 0 0 0 0 0 0 0 0 0 0 0 0 0 0 0 0 0 0 0 0 0 0 0 0 0 0 0 0 0 0 0 0
Height
5762 5763 5765 5767 5769 5771 5773 5775 5778 5780 5782 5784 5786 5788 5790 5792 5794 5797 5799 5801 5804 5806 5808 5810 5813 5815 5817 5819 5821 5822 5824 5825 5826 5827 5829 5830 5831 5832 5832 5833 5834 5834 5834
5752 5753 5755 5757 5759 5761 5763 5766 5768 5771 5773 5775 5778 5780 5782 5784 5786 5789 5791 5794 5796 5799 5801 5804 5806 5809 5811 5813 5815 5817 5819 5820 5822 5823 5824 5826 5827 5828 5829 5829 5830 5831 5831
5741 5743 5745 5747 5749 5751 5754 5756 5758 5761 5764 5766 5768 5771 5773 5776 5778 5780 5783 5785 5787 5790 5793 5796 5799 5802 5804 5807 5809 5811 5813 5815 5816 5818 5819 5821 5822 5824 5824 5825 5826 5827 5828
5729 5732 5734 5737 5739 5741 5743 5746 5748 5751 5754 5756 5759 5761 5764 5766 5768 5771 5772 5775 5777 5780 5784 5787 5791 5794 5797 5800 5802 5804 5807 5809 5810 5812 5814 5816 5817 5819 5820 5821 5821 5822 5823
5717 5720 5723 5725 5727 5729 5732 5735 5737 5740 5743 5746 5748 5751 5754 5756 5758 5761 5762 5765 5768 5771 5775 5778 5782 5786 5789 5792 5794 5797 5800 5802 5804 5806 5808 5810 5811 5813 5814 5815 5816 5817 5818
5706 5708 5711 5713 5716 5718 5720 5723 5726 5729 5732 5735 5738 5740 5743 5746 5748 5750 5753 5756 5758 5761 5765 5769 5773 5777 5780 5783 5786 5789 5792 5795 5797 5799 5801 5803 5805 5806 5808 5809 5811 5811 5813
5694 5696 5699 5701 5704 5706 5708 5711 5714 5718 5720 5723 5727 5730 5732 5735 5737 5740 5743 5746 5749 5752 5756 5760 5764 5768 5771 5774 5777 5781 5784 5786 5789 5792 5794 5796 5798 5800 5801 5803 5804 5805 5806
5681 5684 5686 5689 5692 5694 5696 5699 5702 5705 5709 5711 5715 5718 5721 5725 5727 5730 5733 5736 5739 5742 5746 5750 5754 5758 5762 5765 5768 5771 5775 5778 5780 5783 5786 5788 5790 5792 5794 5796 5797 5798 5800
5669 5672 5674 5677 5679 5682 5684 5687 5690 5693 5697 5700 5702 5706 5709 5714 5717 5720 5722 5725 5728 5732 5736 5740 5743 5748 5751 5755 5758 5762 5765 5768 5771 5774 5777 5779 5782 5784 5786 5788 5789 5791 5792
5656 5659 5662 5664 5666 5669 5672 5675 5678 5681 5684 5688 5690 5693 5697 5702 5706 5710 5712 5715 5718 5721 5725 5729 5733 5737 5740 5745 5748 5752 5755 5758 5761 5764 5767 5770 5773 5775 5777 5779 5781 5782 5784
5643 5645 5648 5651 5653 5656 5659 5662 5665 5668 5671 5675 5678 5681 5685 5689 5693 5697 5701 5704 5706 5710 5714 5718 5722 5726 5729 5733 5737 5741 5744 5748 5751 5754 5757 5760 5763 5765 5768 5770 5772 5774 5775
5629 5632 5634 5637 5639 5642 5645 5648 5651 5655 5658 5661 5665 5668 5672 5676 5680 5684 5688 5692 5695 5698 5702 5705 5709 5713 5717 5721 5726 5730 5733 5737 5740 5743 5746 5749 5752 5755 5757 5760 5762 5764 5766
5616 5617 5619 5622 5625 5628 5631 5634 5638 5641 5644 5648 5651 5655 5658 5662 5666 5670 5674 5678 5682 5686 5689 5693 5696 5701 5705 5709 5713 5717 5721 5725 5728 5732 5735 5738 5741 5744 5747 5749 5751 5754 5756
5601 5603 5605 5607 5610 5613 5616 5619 5623 5627 5630 5634 5637 5640 5644 5648 5652 5656 5660 5664 5668 5673 5676 5680 5683 5687 5691 5696 5700 5704 5708 5712 5716 5719 5722 5726 5729 5732 5736 5738 5740 5742 5745
5586 5588 5590 5592 5595 5598 5601 5604 5608 5611 5615 5619 5622 5626 5629 5633 5637 5641 5645 5649 5654 5658 5663 5666 5669 5673 5677 5681 5686 5690 5694 5698 5702 5706 5709 5713 5716 5720 5723 5726 5729 5731 5733
5571 5573 5575 5577 5579 5582 5585 5588 5592 5595 5600 5604 5607 5611 5614 5618 5622 5626 5630 5634 5637 5642 5647 5653 5655 5659 5662 5667 5671 5676 5680 5684 5688 5692 5695 5699 5703 5706 5710 5713 5716 5719 5721
5556 5557 5559 5561 5563 5566 5569 5572 5576 5579 5584 5588 5591 5595 5599 5603 5607 5610 5614 5618 5622 5626 5632 5638 5641 5644 5648 5652 5656 5661 5665 5669 5673 5677 5681 5685 5688 5692 5695 5699 5702 5705 5708
5540 5541 5543 5545 5547 5549 5552 5555 5559 5563 5568 5572 5576 5580 5584 5587 5591 5595 5599 5603 5607 5611 5616 5621 5626 5629 5633 5637 5641 5645 5650 5654 5658 5662 5666 5670 5673 5677 5681 5684 5687 5691 5694
5524 5525 5527 5529 5531 5533 5536 5539 5543 5547 5551 5555 5560 5564 5568 5572 5576 5580 5583 5587 5591 5595 5600 5604 5610 5614 5618 5622 5626 5630 5634 5638 5642 5647 5651 5654 5658 5662 5665 5669 5672 5676 5679
5509 5510 5511 5512 5514 5517 5520 5523 5527 5531 5535 5539 5543 5548 5552 5556 5560 5564 5568 5572 5576 5580 5584 5588 5593 5598 5602 5606 5610 5615 5619 5623 5627 5631 5635 5639 5643 5646 5650 5654 5658 5661 5664
5493 5494 5496 5497 5499 5501 5504 5507 5510 5515 5519 5523 5527 5531 5535 5539 5544 5548 5552 5556 5560 5564 5568 5573 5578 5582 5587 5591 5595 5599 5603 5607 5611 5615 5619 5624 5628 5632 5634 5638 5641 5645 5649
5478 5479 5480 5482 5484 5486 5489 5491 5494 5499 5502 5506 5511 5515 5519 5523 5528 5531 5536 5539 5544 5548 5553 5557 5562 5567 5572 5576 5580 5583 5587 5592 5598 5602 5604 5608 5612 5615 5619 5623 5626 5629 5633
5464 5464 5465 5467 5469 5471 5473 5476 5479 5482 5486 5490 5495 5499 5503 5507 5511 5515 5519 5523 5527 5532 5537 5542 5546 5551 5556 5561 5565 5569 5572 5576 5582 5586 5588 5593 5596 5600 5603 5607 5610 5614 5617
5449 5450 5451 5452 5454 5456 5458 5460 5463 5467 5470 5475 5479 5483 5487 5491 5495 5499 5503 5507 5511 5516 5521 5526 5532 5537 5540 5544 5548 5553 5556 5560 5565 5568 5571 5576 5580 5584 5587 5591 5594 5597 5601
5435 5436 5437 5438 5440 5442 5443 5446 5448 5451 5455 5459 5464 5468 5471 5476 5480 5483 5487 5492 5496 5501 5504 5509 5514 5519 5524 5528 5532 5536 5539 5544 5548 5552 5555 5560 5565 5568 5571 5575 5578 5581 5584
5422 5423 5424 5425 5426 5428 5429 5431 5433 5437 5441 5445 5449 5453 5457 5460 5463 5466 5470 5475 5480 5485 5489 5494 5499 5503 5507 5512 5515 5519 5523 5527 5531 5536 5539 5544 5548 5552 5556 5560 5562 5565 5569
Wind_Speed
38 39 38 37 37 36 36 36 35 34 33 33 32 31 31 32 31 30 30 29 29 28 28 28 26 25 24 23 22 21 19 19 18 17 17 16 15 14 13 12 12 12 11
39 39 39 39 39 38 38 37 37 36 36 35 34 34 34 34 34 32 31 31 31 31 30 30 29 28 27 25 24 24 22 21 20 20 19 18 17 16 15 14 14 14 13
41 40 40 40 41 40 40 39 39 38 38 37 36 36 35 35 35 35 34 34 34 33 33 32 31 31 30 29 27 26 25 24 23 22 21 21 20 18 17 17 16 16 16
42 42 41 42 42 42 42 42 41 40 39 38 38 37 37 36 37 36 35 35 35 36 35 34 33 32 32 31 30 29 28 26 25 24 23 23 22 21 20 20 19 18 18
44 44 43 43 43 43 43 43 42 42 41 39 39 38 38 37 37 37 36 36 36 36 36 36 35 34 34 32 32 31 30 29 28 27 26 25 24 24 23 22 21 20 20
46 46 45 44 44 44 45 44 43 43 42 41 40 40 39 39 38 38 38 37 37 37 37 36 36 36 36 35 34 33 33 32 30 29 28 27 27 26 25 25 24 23 22
46 47 46 45 44 44 44 45 46 45 44 42 41 41 41 41 40 39 40 40 39 39 39 37 37 38 37 37 37 36 35 34 33 32 31 29 29 28 27 27 26 25 25
47 47 47 46 45 45 45 46 46 46 46 44 43 43 42 42 42 41 42 42 41 41 41 39 39 39 39 39 38 37 37 36 36 35 33 32 31 30 29 29 28 28 27
48 48 47 47 46 46 46 45 46 46 46 46 45 45 44 44 43 42 43 44 43 42 42 42 41 41 41 40 40 38 38 38 38 37 36 35 34 33 32 32 31 30 30
49 49 48 49 48 48 47 47 47 47 47 47 47 46 46 46 45 44 44 45 46 44 44 44 43 42 42 43 42 41 40 40 40 39 38 38 37 36 36 35 34 33 32
49 50 50 50 50 50 50 49 49 49 49 48 48 48 47 47 47 46 45 46 48 47 47 46 45 44 44 45 45 44 43 43 42 41 41 40 40 39 38 38 36 36 35
49 51 51 52 52 51 51 50 50 50 51 50 50 49 50 49 49 49 48 48 49 48 49 48 48 46 46 47 47 46 46 45 44 43 43 42 42 41 41 40 39 38 37
50 51 52 53 53 53 52 53 52 51 51 52 51 51 52 51 51 52 51 50 51 51 50 50 49 50 49 48 48 48 49 47 46 45 46 45 44 43 43 42 41 40 40
51 52 52 53 53 53 53 54 54 53 52 52 53 53 54 54 54 53 53 53 53 53 52 51 51 51 51 51 50 50 51 50 49 48 47 47 47 46 45 44 43 42 42
52 53 53 53 54 54 54 55 55 55 54 54 54 55 55 55 55 55 54 54 55 55 54 53 53 53 53 53 53 52 52 52 52 51 50 49 48 48 47 47 46 45 44
52 53 54 54 55 56 56 56 56 56 56 55 55 55 54 54 56 57 57 56 55 56 56 54 53 53 54 54 55 54 54 54 54 53 53 51 50 50 50 49 48 48 46
52 53 54 55 56 57 57 57 57 57 57 57 56 55 55 55 56 56 56 56 55 56 57 56 55 55 55 55 56 56 56 56 55 55 55 53 52 52 52 51 51 50 48
53 53 53 54 55 56 57 57 57 58 58 58 58 57 57 57 56 57 57 56 56 57 57 56 56 56 57 56 57 57 56 56 56 55 55 55 54 53 53 53 53 52 50
53 54 54 55 56 57 57 57 57 57 58 58 58 57 57 58 58 57 57 57 57 57 56 56 56 56 57 57 57 57 57 56 56 56 55 55 55 55 54 54 54 54 53
53 53 53 54 55 56 57 57 57 57 57 57 58 58 59 59 59 59 58 58 58 57 56 56 56 56 57 58 57 58 58 57 57 57 56 56 56 55 55 55 55 56 55
52 52 53 53 53 54 55 56 57 57 57 57 57 58 58 59 59 59 58 58 58 58 57 57 57 56 56 57 57 57 58 58 58 57 57 57 57 57 56 57 57 57 56
50 51 52 52 51 52 53 55 56 56 56 56 57 57 58 58 58 58 58 57 57 58 58 58 58 57 56 56 57 57 57 57 58 58 58 57 58 58 58 57 57 57 56
48 49 50 50 50 51 51 53 54 55 56 56 56 56 57 57 57 57 57 57 58 58 59 58 58 58 57 56 57 57 58 57 57 57 58 57 58 59 59 59 58 58 58
46 46 47 47 49 49 50 51 52 53 54 55 55 55 56 56 56 57 57 57 58 58 59 58 58 57 56 57 57 57 57 58 59 59 59 58 58 59 58 58 58 58 58
43 44 44 45 45 46 48 49 50 51 51 52 53 54 55 56 56 57 57 56 56 56 57 58 58 57 57 57 58 58 58 59 60 59 59 59 58 58 57 57 58 57 57
42 42 43 43 43 43 44 46 48 48 49 50 51 52 53 54 55 55 55 55 55 56 56 56 56 57 58 58 59 59 59 59 60 60 59 59 58 58 58 58 58 58 58
Wind_Direction
260 258 258 258 258 256 256 257 256 255 255 254 254 253 251 249 248 247 246 246 245 243 244 244 244 243 244 244 244 243 243 244 245 246 245 245 247 250 252 256 259 263 268
258 258 257 257 257 256 255 255 256 255 255 254 253 252 252 251 249 249 247 246 246 244 244 244 244 243 243 243 243 243 242 244 245 246 246 245 248 251 252 255 259 261 264
257 257 257 257 257 256 255 254 255 254 254 254 253 251 251 251 250 249 248 247 246 244 244 244 244 243 242 242 243 244 244 244 244 246 247 247 247 249 252 255 258 261 263
257 256 257 257 257 256 255 254 254 253 253 253 252 251 250 251 251 250 249 248 246 244 243 243 243 243 242 242 242 243 244 244 244 245 247 248 249 249 251 255 258 261 263
257 255 256 256 256 256 255 254 254 253 252 252 252 251 250 250 251 249 249 247 245 243 243 243 242 242 241 242 242 243 244 244 244 245 247 248 249 250 251 254 258 260 262
257 256 256 256 256 255 254 253 253 252 252 251 251 250 250 250 250 248 248 247 245 243 241 242 242 242 242 242 242 243 244 243 245 246 247 248 249 251 253 254 257 259 261
257 257 257 256 256 255 253 253 251 250 251 251 250 250 249 249 249 247 248 247 245 243 241 241 243 242 242 242 243 243 244 244 244 245 247 248 250 251 253 253 256 259 261
258 257 258 257 257 255 254 252 250 249 250 251 251 250 249 247 248 247 246 246 245 243 242 242 243 243 243 243 243 244 245 245 245 245 247 248 250 252 253 253 255 257 260
258 257 258 257 257 257 254 253 251 250 249 250 251 250 249 246 246 247 246 246 244 243 243 243 243 243 243 243 243 244 245 245 245 246 247 249 250 252 254 254 255 256 259
257 257 257 257 257 256 255 254 252 251 250 250 250 249 249 248 246 246 247 246 244 243 243 243 244 243 244 244 244 244 244 246 246 247 248 249 251 252 254 255 255 257 258
257 257 257 257 257 256 255 255 253 251 251 251 250 250 250 249 248 247 247 247 245 244 244 245 245 245 245 245 245 245 245 246 247 247 248 249 251 252 253 255 257 258 259
258 257 257 257 256 256 254 254 254 253 251 250 251 251 250 249 249 247 247 247 246 245 245 247 246 246 246 245 246 246 246 247 247 248 248 249 250 252 253 255 257 259 260
258 258 257 257 257 256 255 254 254 254 253 251 251 252 251 250 250 249 248 248 248 246 246 247 246 246 247 246 247 247 247 247 248 248 249 249 250 251 253 254 256 258 260
258 258 258 258 257 256 256 254 254 254 253 252 252 252 251 251 251 250 250 250 249 248 248 247 247 247 248 247 247 248 247 247 248 248 249 250 250 250 251 253 256 258 260
260 259 259 259 257 256 255 255 254 253 253 252 252 252 252 252 251 251 251 251 250 249 248 248 248 246 247 248 248 248 247 248 247 248 249 250 251 251 251 252 254 257 259
262 260 259 259 258 257 255 254 254 253 252 252 251 251 252 251 251 251 251 252 251 250 249 248 248 246 246 248 249 248 248 249 248 249 249 250 251 251 252 252 253 255 257
263 262 261 260 259 258 256 255 253 252 251 251 250 250 251 251 251 250 250 251 251 251 250 248 247 247 247 247 247 248 249 249 249 249 249 250 251 252 252 252 253 255 256
264 263 262 261 260 258 256 254 252 251 251 251 250 250 250 251 251 251 250 250 251 251 250 249 248 248 248 247 246 247 248 248 249 249 249 250 251 252 253 253 253 253 254
264 263 262 262 260 258 255 253 252 251 251 250 249 249 250 250 251 251 251 250 251 251 251 251 250 249 247 246 246 246 247 248 249 249 250 251 251 252 252 252 253 252 252
264 264 263 262 260 258 256 253 252 252 251 250 249 249 250 250 250 250 250 250 251 251 251 251 250 248 246 246 246 246 247 248 249 250 249 250 251 252 253 253 254 253 253
265 263 263 262 260 258 256 253 252 252 252 250 249 249 249 250 251 250 250 250 250 250 250 249 249 248 247 246 247 247 247 247 249 250 250 250 251 252 253 254 253 253 253
266 265 263 261 260 258 257 255 253 254 253 250 249 249 249 250 250 250 249 249 249 249 249 249 248 248 248 247 248 248 249 248 249 249 250 250 251 251 252 253 254 253 254
266 265 262 261 260 259 257 255 255 254 253 251 250 250 250 250 250 249 249 249 248 248 248 248 248 248 248 248 248 249 250 250 250 249 249 250 250 251 252 253 254 254 254
267 265 263 262 260 258 257 255 254 253 252 251 250 250 250 250 249 248 249 249 248 248 248 247 247 247 247 248 248 249 250 251 250 249 249 249 249 251 252 253 253 253 253
268 266 264 262 261 259 257 256 255 253 252 250 250 249 249 249 249 249 249 249 248 247 247 247 246 246 247 248 248 249 250 250 250 249 249 249 249 250 251 251 252 253 253
269 267 264 262 261 259 257 256 254 253 252 251 250 249 249 249 249 249 249 249 248 247 246 246 246 247 248 249 250 250 250 250 250 249 249 249 249 249 250 251 252 253 254